Voltar ao catálogo

FENGYUN 1C DEB

AtivoSSO
NORAD 30391·DEBRIS·🇨🇳 China

Lançado May 10, 1999 de Taiyuan Satellite Launch Center

Loading…

Próximas Passagens (próximas 24 horas)

TLE

AtualizadoSource: Space-Track

Época: Sep 14, 2026, 02:39 UTC

1 30391U 99025ADE 26257.11091525  .00001243  00000-0  62157-3 0  9991
2 30391  98.7584 304.1811 0071420 193.5382 194.2238 14.17239307  7667

Acompanhe FENGYUN 1C DEB em tempo real com AllMySat

Download on the App Store